Weather History for K40J - April, 2013

Change the Weather History Date:

Saturday, April 20, 2013

  Actual Average (KCTY) Record (KCTY)
Temperature  
Mean Temperature 58 °F 68 °F  
Max Temperature 68 °F 81 °F 91 °F (2006)
Min Temperature 48 °F 54 °F 45 °F (1999)
Degree Days  
Heating Degree Days 7 1  
Month to date heating degree days 41  
Since 1 July heating degree days 1296  
Cooling Degree Days 0 4  
Month to date cooling degree days 62  
Year to date cooling degree days 136  
Growing Degree Days 8 (Base 50)    
Moisture  
Dew Point 49 °F    
Average Humidity 75    
Maximum Humidity 100    
Minimum Humidity 44    
Precipitation  
Precipitation 0.38 in 0.07 in 1.17 in (2013)
Month to date precipitation 2.35  
Year to date precipitation 13.87  
Sea Level Pressure  
Sea Level Pressure 30.13 in    
Wind  
Wind Speed 8 mph (North)    
Max Wind Speed 16 mph    
Max Gust Speed 21 mph    
Visibility 10 miles    
Events Rain    
T = Trace of Precipitation, MM = Missing Value Source: NWS Daily Summary

Daily Weather History Graph

Daily Weather History Graph

Search for Another Location

Airport or City:

Trip Planner

Search our weather history database for the weather conditions in past years. The results will help you decide how hot, cold, wet, or windy it might be!

Date:

Astronomy

Apr. 20, 2013 Rise Set
Actual Time 7:01 AM EDT 8:04 PM EDT
Civil Twilight 6:36 AM EDT 8:29 PM EDT
Nautical Twilight 6:07 AM EDT 8:59 PM EDT
Astronomical Twilight 5:37 AM EDT 9:29 PM EDT
Moon 3:09 PM EDT (4/20) 3:27 AM EDT (4/20)
Length of Visible Light 13h 52m
Length of Day
13h 03m
Waxing Gibbous, 71% of the Moon is Illuminated
Apr 20
Waxing Gibbous
Apr 25
Full
May 2
Last Quarter
May 9
New
May 18
First Quarter

Hourly Weather History & Observations

Time (EDT) Temp. Dew Point Humidity Pressure Visibility Wind Dir Wind Speed Gust Speed Precip Events Conditions
12:15 AM 60.8 °F 59.0 °F 94% 30.07 in 10.0 mi North 6.9 mph - N/A Rain Light Rain
12:35 AM 60.8 °F 59.0 °F 94% 30.07 in 10.0 mi North 8.1 mph - N/A   Overcast
12:53 AM 57.0 °F 52.0 °F 83% 30.07 in - North 16.1 mph 19.6 mph 0.01 in   Unknown
12:55 AM 59.0 °F 55.4 °F 88% 30.08 in 10.0 mi North 15.0 mph 20.7 mph 0.01 in Rain Rain
1:15 AM 55.4 °F 53.6 °F 94% 30.10 in 10.0 mi NNW 11.5 mph 16.1 mph N/A   Light Drizzle
1:35 AM 53.6 °F 53.6 °F 100% 30.10 in 7.0 mi NNW 12.7 mph 17.3 mph 0.01 in Rain Rain
1:53 AM 52.0 °F 48.9 °F 89% 30.08 in - WNW 4.6 mph - 0.04 in   Unknown
1:55 AM 53.6 °F 51.8 °F 94% 30.10 in 7.0 mi NW 3.5 mph - 0.04 in Rain Rain
2:35 AM 51.8 °F 51.8 °F 100% 30.09 in 5.0 mi North 9.2 mph - 0.10 in Rain Rain
2:53 AM 50.0 °F 46.9 °F 89% 30.08 in - NNW 11.5 mph 18.4 mph 0.12 in   Unknown
2:55 AM 51.8 °F 51.8 °F 100% 30.09 in 10.0 mi North 9.2 mph 16.1 mph 0.12 in Rain Heavy Rain
3:15 AM 50.0 °F 50.0 °F 100% 30.08 in 7.0 mi North 9.2 mph - 0.04 in Rain Heavy Rain
3:35 AM 50.0 °F 50.0 °F 100% 30.08 in 10.0 mi North 6.9 mph - 0.08 in Rain Light Rain
3:53 AM 48.9 °F 46.0 °F 90% 30.08 in - North 8.1 mph - 0.11 in   Unknown
3:55 AM 50.0 °F 50.0 °F 100% 30.09 in 10.0 mi North 5.8 mph - 0.09 in Rain Light Rain
4:35 AM 50.0 °F 50.0 °F 100% 30.11 in 10.0 mi North 4.6 mph - N/A   Overcast
4:53 AM 50.0 °F 46.9 °F 89% 30.08 in - North 6.9 mph - 0.02 in   Unknown
4:55 AM 50.0 °F 50.0 °F 100% 30.10 in 10.0 mi NNE 5.8 mph - 0.02 in Rain Light Rain
5:15 AM 50.0 °F 50.0 °F 100% 30.10 in 5.0 mi North 5.8 mph - 0.06 in Rain Heavy Rain
5:35 AM 50.0 °F 50.0 °F 100% 30.10 in 10.0 mi North 6.9 mph - 0.07 in Rain Rain
5:53 AM 50.0 °F 48.0 °F 93% 30.09 in - NNE 4.6 mph - 0.07 in   Unknown
5:55 AM 50.0 °F 50.0 °F 100% 30.10 in 10.0 mi NNE 5.8 mph - 0.07 in Rain Light Rain
6:15 AM 50.0 °F 50.0 °F 100% 30.10 in 10.0 mi North 4.6 mph - N/A   Overcast
6:35 AM 50.0 °F - N/A% 30.11 in 10.0 mi North 5.8 mph - N/A   Overcast
6:53 AM 51.1 °F 48.0 °F 89% 30.10 in - North 9.2 mph - N/A   Unknown
6:55 AM 50.0 °F - N/A% 30.12 in 10.0 mi North 6.9 mph - N/A   Overcast
7:15 AM 50.0 °F - N/A% 30.12 in 10.0 mi North 6.9 mph - N/A   Overcast
7:35 AM 50.0 °F - N/A% 30.13 in 10.0 mi North 6.9 mph - 0.01 in Rain Light Rain
7:53 AM 51.1 °F 46.9 °F 86% 30.13 in - North 6.9 mph - N/A   Unknown
7:55 AM 50.0 °F - N/A% 30.14 in 10.0 mi North 6.9 mph - 0.01 in   Light Drizzle
8:15 AM 50.0 °F - N/A% 30.15 in 10.0 mi North 8.1 mph - N/A   Mostly Cloudy
8:53 AM 51.1 °F 45.0 °F 80% 30.14 in - North 10.4 mph - N/A   Unknown
8:55 AM 50.0 °F - N/A% 30.16 in 10.0 mi North 11.5 mph - N/A   Overcast
9:15 AM 50.0 °F - N/A% 30.16 in 10.0 mi North 5.8 mph - N/A   Overcast
9:35 AM 50.0 °F - N/A% 30.16 in 10.0 mi North 8.1 mph - N/A   Mostly Cloudy
9:53 AM 51.1 °F 44.1 °F 77% 30.15 in - NNE 6.9 mph - N/A   Unknown
9:55 AM 50.0 °F - N/A% 30.16 in 10.0 mi North 8.1 mph - N/A   Scattered Clouds
10:15 AM 50.0 °F - N/A% 30.17 in 10.0 mi North 8.1 mph - N/A   Scattered Clouds
10:35 AM 51.8 °F - N/A% 30.18 in 10.0 mi North 10.4 mph - N/A   Mostly Cloudy
10:53 AM 53.1 °F 44.1 °F 71% 30.17 in - NNE 10.4 mph - N/A   Unknown
10:55 AM 51.8 °F - N/A% 30.19 in 10.0 mi NNE 8.1 mph - N/A   Overcast
11:15 AM 51.8 °F - N/A% 30.18 in 10.0 mi North 6.9 mph - N/A   Overcast
11:35 AM 55.4 °F - N/A% 30.18 in 10.0 mi North 11.5 mph - N/A   Scattered Clouds
11:53 AM 55.9 °F 45.0 °F 67% 30.16 in - NNE 8.1 mph - N/A   Unknown
11:55 AM 55.4 °F - N/A% 30.17 in 10.0 mi NNE 9.2 mph - N/A   Clear
12:15 PM 55.4 °F - N/A% 30.17 in 10.0 mi North 9.2 mph - N/A   Mostly Cloudy
12:35 PM 57.2 °F - N/A% 30.17 in 10.0 mi NNE 9.2 mph - N/A   Mostly Cloudy
12:53 PM 60.1 °F 46.0 °F 60% 30.16 in - NNW 8.1 mph - N/A   Unknown
1:15 PM 59.0 °F - N/A% 30.16 in 10.0 mi North 9.2 mph - N/A   Scattered Clouds
1:35 PM 60.8 °F - N/A% 30.16 in 10.0 mi North 8.1 mph - N/A   Clear
1:53 PM 62.1 °F 46.9 °F 58% 30.14 in - Variable 6.9 mph - N/A   Unknown
1:55 PM 60.8 °F - N/A% 30.15 in 10.0 mi NNE 8.1 mph - N/A   Clear
2:15 PM 62.6 °F 60.8 °F 94% 30.15 in 10.0 mi North 9.2 mph - N/A   Clear
2:35 PM 62.6 °F 51.8 °F 68% 30.14 in 10.0 mi NNW 9.2 mph - N/A   Clear
2:53 PM 64.0 °F 44.1 °F 48% 30.12 in - NNE 8.1 mph - N/A   Unknown
2:55 PM 64.4 °F 50.0 °F 59% 30.13 in 10.0 mi NE 8.1 mph - N/A   Clear
3:15 PM 64.4 °F 50.0 °F 59% 30.13 in 10.0 mi North 8.1 mph - N/A   Clear
3:35 PM 64.4 °F 46.4 °F 52% 30.12 in 10.0 mi NE 8.1 mph - N/A   Clear
3:53 PM 64.9 °F 44.1 °F 47% 30.11 in - NNE 9.2 mph - N/A   Unknown
3:55 PM 66.2 °F 48.2 °F 52% 30.12 in 10.0 mi NNE 8.1 mph - N/A   Clear
4:15 PM 66.2 °F 48.2 °F 52% 30.11 in 10.0 mi NE 8.1 mph - N/A   Clear
4:35 PM 68.0 °F 46.4 °F 46% 30.11 in 10.0 mi NE 6.9 mph - N/A   Clear
4:53 PM 66.0 °F 44.1 °F 45% 30.10 in - NNE 8.1 mph - N/A   Unknown
4:55 PM 66.2 °F 46.4 °F 49% 30.11 in 10.0 mi NNE 8.1 mph - N/A   Clear
5:35 PM 68.0 °F 48.2 °F 49% 30.10 in 10.0 mi ENE 3.5 mph - N/A   Clear
5:53 PM 66.9 °F 45.0 °F 45% 30.09 in - Variable 4.6 mph - N/A   Unknown
5:55 PM 68.0 °F 46.4 °F 46% 30.10 in 10.0 mi NE 4.6 mph - N/A   Clear
6:15 PM 68.0 °F 46.4 °F 46% 30.10 in 10.0 mi NNE 9.2 mph - N/A   Clear
6:35 PM 68.0 °F 46.4 °F 46% 30.10 in 10.0 mi NNE 6.9 mph - N/A   Clear
6:53 PM 66.9 °F 44.1 °F 44% 30.10 in - North 9.2 mph - N/A   Unknown
6:55 PM 66.2 °F 46.4 °F 49% 30.11 in 10.0 mi NNE 5.8 mph - N/A   Clear
7:15 PM 64.4 °F 48.2 °F 56% 30.12 in 10.0 mi NNE 5.8 mph - N/A   Clear
7:35 PM 64.4 °F 48.2 °F 56% 30.13 in 10.0 mi NNE 5.8 mph - N/A   Clear
7:53 PM 62.1 °F 44.1 °F 52% 30.12 in - NE 3.5 mph - N/A   Unknown
7:55 PM 62.6 °F 50.0 °F 63% 30.13 in 10.0 mi Calm Calm - N/A   Clear
8:15 PM 60.8 °F 53.6 °F 77% 30.14 in 10.0 mi Calm Calm - N/A   Clear
8:35 PM 59.0 °F 59.0 °F 100% 30.14 in 10.0 mi ENE 3.5 mph - N/A   Clear
8:53 PM 57.9 °F 45.0 °F 62% 30.14 in - ENE 3.5 mph - N/A   Unknown
8:55 PM 59.0 °F 59.0 °F 100% 30.15 in 10.0 mi ENE 3.5 mph - N/A   Clear
9:15 PM 55.4 °F - N/A% 30.16 in 10.0 mi Calm Calm - N/A   Clear
9:35 PM 55.4 °F - N/A% 30.18 in 10.0 mi Calm Calm - N/A   Clear
9:53 PM 52.0 °F 46.9 °F 83% 30.17 in - Calm Calm - N/A   Unknown
9:55 PM 53.6 °F - N/A% 30.18 in 10.0 mi Calm Calm - N/A   Clear
10:15 PM 51.8 °F - N/A% 30.19 in 10.0 mi Calm Calm - N/A   Clear
10:35 PM 53.6 °F - N/A% 30.20 in 10.0 mi Calm Calm - N/A   Clear
10:53 PM 53.1 °F 46.0 °F 77% 30.19 in - Calm Calm - N/A   Unknown
10:55 PM 53.6 °F - N/A% 30.21 in 10.0 mi Calm Calm - N/A   Clear
11:15 PM 53.6 °F - N/A% 30.21 in 10.0 mi Calm Calm - N/A   Clear
11:53 PM 52.0 °F 46.0 °F 80% 30.20 in - ESE 5.8 mph - N/A   Unknown
11:55 PM 53.6 °F - N/A% 30.21 in 10.0 mi East 5.8 mph - N/A   Clear